• In Netherlands
  • List of Countries
  • For 7 days
  • Water Temperature
  • Satellite Maps
  • Weather Map
  • Weather Widgets
  • user-avatar
    Login

    Hourly Weather Baranovichi

    Today, 24 April, Monday

    Time Temperature Precipitation Wind Pressure Humidity
    00:00 -2°C° 0 mm 2 mps 743 mmHg 90%
    01:00 -2°C° 0 mm 2 mps 743 mmHg 90%
    02:00 -2°C° 0 mm 2 mps 743 mmHg 91%
    03:00 -2°C° 0 mm 2 mps 743 mmHg 91%
    04:00 -3°C° 0 mm 2 mps 743 mmHg 91%
    05:00 -1°C° 0 mm 1 mps 743 mmHg 92%
    06:00 -1°C° 0 mm 2 mps 743 mmHg 84%
    07:00 +2°C° 0 mm 2 mps 743 mmHg 76%
    08:00 +4°C° 0 mm 2 mps 744 mmHg 68%
    09:00 +5°C° 0.2 mm 2 mps 744 mmHg 64%
    10:00 +6°C° 0.2 mm 2 mps 744 mmHg 60%
    11:00 +7°C° 0.2 mm 2 mps 744 mmHg 56%
    12:00 +7°C° 0.4 mm 3 mps 744 mmHg 58%
    13:00 +8°C° 0.4 mm 3 mps 744 mmHg 59%
    14:00 +8°C° 0.4 mm 3 mps 744 mmHg 61%
    15:00 +8°C° 0.2 mm 3 mps 744 mmHg 62%
    16:00 +7°C° 0.2 mm 3 mps 744 mmHg 63%
    17:00 +7°C° 0.2 mm 3 mps 744 mmHg 64%
    18:00 +5°C° 0 mm 3 mps 744 mmHg 71%
    19:00 +4°C° 0 mm 2 mps 744 mmHg 77%
    20:00 +2°C° 0 mm 2 mps 744 mmHg 84%
    21:00 +2°C° 0 mm 2 mps 744 mmHg 84%
    22:00 +2°C° 0 mm 2 mps 744 mmHg 84%
    23:00 +2°C° 0 mm 2 mps 744 mmHg 85%

    Tomorrow, 25 April, Tuesday

    Time Temperature Precipitation Wind Pressure Humidity
    00:00 +2°C° 0 mm 2 mps 744 mmHg 85%
    01:00 +1°C° 0 mm 3 mps 744 mmHg 85%
    02:00 +1°C° 0 mm 3 mps 744 mmHg 85%
    03:00 +1°C° 0.1 mm 3 mps 743 mmHg 86%
    04:00 +1°C° 0.1 mm 3 mps 743 mmHg 86%
    05:00 0°C° 0.1 mm 4 mps 743 mmHg 87%
    06:00 +1°C° 0 mm 4 mps 743 mmHg 84%
    07:00 +3°C° 0 mm 4 mps 742 mmHg 81%
    08:00 +4°C° 0 mm 4 mps 742 mmHg 78%
    09:00 +6°C° 0 mm 5 mps 742 mmHg 72%
    10:00 +8°C° 0 mm 5 mps 742 mmHg 66%
    11:00 +10°C° 0 mm 5 mps 741 mmHg 60%
    12:00 +11°C° 0 mm 6 mps 741 mmHg 60%
    13:00 +11°C° 0 mm 6 mps 741 mmHg 59%
    14:00 +13°C° 0 mm 6 mps 740 mmHg 59%
    15:00 +13°C° 0.1 mm 5 mps 740 mmHg 61%
    16:00 +13°C° 0.1 mm 5 mps 739 mmHg 64%
    17:00 +13°C° 0.1 mm 4 mps 739 mmHg 66%
    18:00 +12°C° 0.2 mm 5 mps 739 mmHg 72%
    19:00 +10°C° 0.2 mm 5 mps 738 mmHg 78%
    20:00 +9°C° 0.2 mm 5 mps 738 mmHg 84%
    21:00 +9°C° 0.3 mm 5 mps 738 mmHg 86%
    22:00 +10°C° 0.3 mm 4 mps 738 mmHg 89%
    23:00 +10°C° 0.3 mm 4 mps 738 mmHg 91%

    Day after tomorrow, 26 April, Wednesday

    Time Temperature Precipitation Wind Pressure Humidity
    00:00 +8°C° 0.2 mm 4 mps 738 mmHg 92%
    01:00 +8°C° 0.2 mm 4 mps 738 mmHg 93%
    02:00 +8°C° 0.2 mm 4 mps 737 mmHg 94%
    03:00 +8°C° 0.4 mm 4 mps 738 mmHg 94%
    04:00 +8°C° 0.4 mm 4 mps 738 mmHg 94%
    05:00 +9°C° 0.4 mm 3 mps 738 mmHg 94%
    06:00 +9°C° 0.7 mm 3 mps 738 mmHg 94%
    07:00 +8°C° 0.7 mm 3 mps 739 mmHg 93%
    08:00 +8°C° 0.7 mm 2 mps 739 mmHg 93%
    09:00 +8°C° 0.3 mm 2 mps 740 mmHg 91%
    10:00 +8°C° 0.3 mm 2 mps 740 mmHg 90%
    11:00 +8°C° 0.3 mm 2 mps 741 mmHg 88%
    12:00 +8°C° 0.3 mm 2 mps 741 mmHg 87%
    13:00 +8°C° 0.3 mm 2 mps 742 mmHg 85%
    14:00 +8°C° 0.3 mm 2 mps 742 mmHg 84%
    15:00 +8°C° 0.4 mm 2 mps 743 mmHg 85%
    16:00 +7°C° 0.4 mm 2 mps 743 mmHg 85%
    17:00 +8°C° 0.4 mm 1 mps 743 mmHg 86%
    18:00 +7°C° 0.1 mm 1 mps 744 mmHg 89%
    19:00 +7°C° 0.1 mm 1 mps 744 mmHg 91%
    20:00 +6°C° 0.1 mm 1 mps 744 mmHg 94%
    21:00 +6°C° 0.5 mm 1 mps 744 mmHg 94%
    22:00 +6°C° 0.5 mm 1 mps 744 mmHg 94%
    23:00 +6°C° 0.5 mm 1 mps 744 mmHg 94%

    27 April, Thursday

    Time Temperature Precipitation Wind Pressure Humidity
    00:00 +6°C° 1.6 mm 1 mps 743 mmHg 95%
    01:00 +5°C° 1.6 mm 2 mps 743 mmHg 96%
    02:00 +5°C° 1.6 mm 2 mps 743 mmHg 97%
    03:00 +4°C° 0.6 mm 3 mps 742 mmHg 97%
    04:00 +4°C° 0.6 mm 3 mps 741 mmHg 97%
    05:00 +4°C° 0.6 mm 3 mps 741 mmHg 97%
    06:00 +5°C° 1.1 mm 3 mps 740 mmHg 97%
    07:00 +7°C° 1.1 mm 3 mps 740 mmHg 97%
    08:00 +7°C° 1.1 mm 3 mps 739 mmHg 97%
    09:00 +8°C° 2.2 mm 3 mps 739 mmHg 97%
    10:00 +8°C° 2.2 mm 3 mps 739 mmHg 97%
    11:00 +9°C° 2.2 mm 3 mps 739 mmHg 96%
    12:00 +9°C° 0.6 mm 3 mps 739 mmHg 95%
    13:00 +10°C° 0.6 mm 3 mps 739 mmHg 95%
    14:00 +10°C° 0.6 mm 3 mps 740 mmHg 94%
    15:00 +9°C° 0 mm 3 mps 740 mmHg 93%
    16:00 +9°C° 0 mm 3 mps 741 mmHg 92%
    17:00 +8°C° 0 mm 3 mps 741 mmHg 91%
    18:00 +7°C° 0 mm 3 mps 742 mmHg 92%
    19:00 +6°C° 0 mm 2 mps 743 mmHg 93%
    20:00 +5°C° 0 mm 2 mps 743 mmHg 95%
    21:00 +5°C° 0 mm 2 mps 744 mmHg 95%
    22:00 +4°C° 0 mm 2 mps 744 mmHg 96%
    23:00 +4°C° 0 mm 2 mps 745 mmHg 96%

    28 April, Friday

    Time Temperature Precipitation Wind Pressure Humidity
    00:00 +4°C° 0 mm 2 mps 745 mmHg 97%
    01:00 +3°C° 0 mm 2 mps 745 mmHg 97%
    02:00 +3°C° 0 mm 2 mps 746 mmHg 97%
    03:00 +3°C° 0 mm 2 mps 745 mmHg 97%
    04:00 +2°C° 0 mm 3 mps 745 mmHg 97%
    05:00 +1°C° 0 mm 3 mps 745 mmHg 96%
    06:00 +2°C° 0.6 mm 3 mps 745 mmHg 95%
    07:00 +1°C° 0.6 mm 4 mps 745 mmHg 94%
    08:00 +3°C° 0.6 mm 4 mps 745 mmHg 93%
    09:00 +2°C° 1.5 mm 5 mps 744 mmHg 94%
    10:00 +2°C° 1.5 mm 5 mps 743 mmHg 94%
    11:00 +2°C° 1.5 mm 6 mps 743 mmHg 95%
    12:00 +2°C° 2 mm 5 mps 742 mmHg 95%
    13:00 +2°C° 2 mm 5 mps 741 mmHg 96%
    14:00 +2°C° 2 mm 5 mps 741 mmHg 96%
    15:00 +4°C° 1.8 mm 4 mps 740 mmHg 97%
    16:00 +4°C° 1.8 mm 4 mps 739 mmHg 97%
    17:00 +4°C° 1.8 mm 4 mps 738 mmHg 97%
    18:00 +5°C° 1.9 mm 3 mps 738 mmHg 98%
    19:00 +5°C° 1.9 mm 3 mps 738 mmHg 98%
    20:00 +6°C° 1.9 mm 2 mps 738 mmHg 98%
    21:00 +6°C° 0.3 mm 2 mps 738 mmHg 98%
    22:00 +6°C° 0.3 mm 2 mps 737 mmHg 99%
    23:00 +7°C° 0.3 mm 1 mps 737 mmHg 99%

    29 April, Saturday

    Time Temperature Precipitation Wind Pressure Humidity
    00:00 +5°C° 0.1 mm 2 mps 737 mmHg 98%
    01:00 +5°C° 0.1 mm 2 mps 738 mmHg 98%
    02:00 +4°C° 0.1 mm 3 mps 738 mmHg 97%
    03:00 +4°C° 0 mm 3 mps 738 mmHg 97%
    04:00 +4°C° 0 mm 3 mps 739 mmHg 97%
    05:00 +3°C° 0 mm 3 mps 739 mmHg 96%
    06:00 +3°C° 0 mm 4 mps 740 mmHg 95%
    07:00 +4°C° 0 mm 4 mps 740 mmHg 94%
    08:00 +4°C° 0 mm 4 mps 741 mmHg 93%
    09:00 +4°C° 0.1 mm 4 mps 741 mmHg 92%
    10:00 +4°C° 0.1 mm 4 mps 742 mmHg 90%
    11:00 +5°C° 0.1 mm 4 mps 743 mmHg 88%
    12:00 +5°C° 0.1 mm 4 mps 743 mmHg 86%
    13:00 +5°C° 0.1 mm 4 mps 744 mmHg 84%
    14:00 +5°C° 0.1 mm 4 mps 744 mmHg 82%
    15:00 +7°C° 0.1 mm 3 mps 745 mmHg 81%
    16:00 +7°C° 0.1 mm 3 mps 745 mmHg 79%
    17:00 +7°C° 0.1 mm 3 mps 746 mmHg 77%
    18:00 +6°C° 0 mm 2 mps 746 mmHg 82%
    19:00 +4°C° 0 mm 2 mps 747 mmHg 87%
    20:00 +4°C° 0 mm 1 mps 747 mmHg 93%
    21:00 +4°C° 0 mm 1 mps 748 mmHg 93%
    22:00 +2°C° 0 mm 2 mps 748 mmHg 94%
    23:00 +2°C° 0 mm 2 mps 749 mmHg 95%
    Show more